www.pogodaiklimat.ru

Погода и климат >> Архив погоды >> Таиланд >> Ko Lanta


ПОГОДА в Ko Lanta

  • Прогноз погоды в Ko Lanta
  • Монитор погоды в Ko Lanta
  • Климат города

АРХИВ ПОГОДЫ в Ko Lanta

Время (UTC), дата Ветер
(напр.,м/с)
 
Видим.   Явления Облачность Т
(С)
Тd
(С)
f
(%)
Тe
(С)
Тes
(С)
Комфортность P
(гПа)
Po
(гПа)
Тmin
(С)
Tmax
(С)
R
(мм)
R24
(мм)
S
(см)
03 9.07 9000 м слабый дождь 10/3 600 м
[Cu Sc Ac lent Cs]
+25.2 +24.8 98 1009.4 1008.6 4
06 9.07 10 км в посл. час дождь 10/3 600 м
[Cu Sc Ac lent Cs]
+28.4 +24.8 81 1009.1 1008.3 0.7
09 9.07 9000 м слабый дождь 10/3 600 м
[Cu Sc Ac lent Cs]
+26.3 +25.1 93 1007.6 1006.8 11
12 9.07 9000 м слабый дождь 10/3 600 м
[Cu Sc Ac lent Cs]
+27.2 +24.9 87 1007.6 1006.7 +29.8 3
15 9.07 10 км {дождь} 10/3 600 м
[Cu Sc Ac lent Cs]
+26.6 +25.2 92 1009.4 1008.6 0.3
18 9.07 10 км слабый дождь 10/3 600 м
[Cu Sc Ac lent Cs]
+25.8 +24.8 94 1009.2 1008.4 1
21 9.07 10 км 10/3 600 м
[Cu Sc Ac lent Cs]
+26.0 +25.0 94 1007.3 1006.5
00 10.07 9000 м слабый дождь 10/3 600 м
[Cu Sc Ac lent Cs]
+25.0 +24.4 96 1008.5 1007.7 +24.4 0.7
03 10.07 10 км {дождь} 10/3 600 м
[Cu Sc Ac lent Cs]
+29.0 +26.2 85 1010.5 1009.7 4
06 10.07 10 км {дождь} 10/3 600 м
[Cu Sc Ac lent Cs]
+29.3 +26.1 83 1009.9 1009.1 4
09 10.07 10 км 10/3 600 м
[Cu Sc Ac lent Cs]
+29.2 +26.1 83 1007.7 1006.9
12 10.07 10 км 10/3 600 м
[Cu Sc Ac lent Cs]
+29.0 +25.6 82 1008.5 1007.7 +30.0
15 10.07 10 км 10/3 600 м
[Cu Sc Ac lent Cs]
+28.3 +25.8 86 1010.7 1009.9
18 10.07 10 км 10/3 600 м
[Cu Sc Ac lent Cs]
+27.9 +26.1 90 1009.9 1009.1
21 10.07 10 км 10/3 600 м
[Cu Sc Ac lent Cs]
+27.0 +25.4 91 1008.9 1008.1
00 11.07 10 км 10/3 600 м
[Cu Sc Ac lent Cs]
+28.5 +24.9 81 1009.2 1008.3 +25.0 4
03 11.07 10 км 9/3 600 м
[Cu Sc Ac lent Cs]
+29.5 +26.0 81 1010.0 1009.2
06 11.07 10 км 10/3 600 м
[Cu Sc Ac lent Cs]
+30.5 +25.6 75 1008.5 1007.7
09 11.07 10 км 10/3 600 м
[Cu Sc Ac lent Cs]
+30.0 +25.0 75 1007.0 1006.1
12 11.07 10 км 10/3 600 м
[Cu Sc Ac lent Cs]
+29.0 +25.5 81 1007.8 1007.0 +31.0
15 11.07 10 км 10/3 600 м
[Cu Sc Ac lent Cs]
+28.3 +26.0 87 1008.9 1008.1
18 11.07 10 км 10/3 600 м
[Cu Sc Ac lent Cs]
+27.0 +25.6 92 1008.6 1007.8
21 11.07 10 км 8/3 600 м
[Cu hum Ac lent Cs]
+26.8 +26.1 96 1007.7 1006.9
00 12.07 10 км 9/3 600 м
[Cu Sc Ac lent Cs]
+28.3 +25.0 82 1007.9 1007.1 +25.3
03 12.07 10 км 9/3 600 м
[Cu Sc Ac lent Cs]
+29.5 +25.2 78 1009.6 1008.8
06 12.07 10 км 9/3 600 м
[Cu Sc Ac lent Cs]
+30.5 +25.6 75 1008.0 1007.2
09 12.07 10 км 10/3 600 м
[Cu Sc Ac lent Cs]
+29.7 +25.5 78 1006.4 1005.6
12 12.07 10 км в посл. час дождь 10/3 600 м
[Cb cap Ac lent Cs]
+26.6 +24.3 87 1006.8 1005.9 +31.0 3
15 12.07 10 км 10/3 600 м
[Cu Sc Ac lent Cs]
+27.2 +25.5 90 1008.0 1007.1
18 12.07 10 км 10/3 600 м
[Cu Sc Ac lent Cs]
+26.8 +25.4 92 1008.1 1007.3
21 12.07 10 км 10/3 600 м
[Cu Sc Ac lent Cs]
+26.6 +25.6 94 1006.6 1005.7
00 13.07 10 км 8/3 600 м
[Cu Sc Ac lent Cs]
+29.3 +25.0 78 1006.7 1005.9 +25.3 3
03 13.07 10 км 5/3 600 м
[Cu hum Ac lent Cs]
+30.4 +25.3 74 1008.5 1007.7
06 13.07 10 км 8/3 600 м
[Cu Sc Ac lent Cs]
+31.5 +25.9 72 1007.0 1006.2
09 13.07 10 км {дождь} 9/3 600 м
[Cu Sc Ac lent Cs]
+30.7 +26.2 77 1005.3 1004.5 0.8
12 13.07 10 км {дождь} 8/3 600 м
[Cu Sc Ac lent Cs]
+29.7 +25.9 80 1006.3 1005.5 +31.6 0.8
15 13.07 10 км 8/3 600 м
[Cu Sc Ac lent Cs]
+28.4 +26.0 87 1007.9 1007.1
18 13.07 10 км 8/3 600 м
[Cu Sc Ac und Cs]
+27.8 +26.0 90 1007.8 1007.0
00 14.07 10 км 6/3 600 м
[Cu med, cong Ac lent Cs]
+28.9 +25.9 84 1008.4 1007.6 +27.8
03 14.07 10 км 8/3 600 м
[Cu hum Ac lent Cs]
+30.4 +25.9 77 1008.5 1007.7
06 14.07 10 км 8/3 600 м
[Cu med, cong Ac lent Cs]
+31.2 +26.0 74 1007.5 1006.7
09 14.07 10 км 8/3 600 м
[Cu med, cong Ac lent Cs]
+31.5 +25.9 72 1006.4 1005.6
12 14.07 10 км 8/3 600 м
[Cu med, cong Ac lent Cs]
+29.2 +25.5 80 1007.4 1006.6 +31.8
15 14.07 10 км 8/3 600 м
[Cu hum Ac lent Cs]
+28.5 +26.0 86 1009.3 1008.5
18 14.07 10 км 8/3 600 м
[Cu med, cong Ac lent Cs]
+28.0 +26.3 91 1008.1 1007.3
21 14.07 10 км 8/3 600 м
[Cu hum Ac lent Cs]
+27.2 +25.5 90 1006.9 1006.1
00 15.07 10 км 8/3 600 м
[Cu hum Ac lent Cs]
+26.5 +26.1 98 1008.0 1007.2 +26.0
03 15.07 10 км 8/3 600 м
[Cu med, cong Ac lent Cs]
+30.0 +25.8 78 1008.5 1007.7
06 15.07 10 км 8/3 600 м
[Cu hum Ac lent Cs]
+31.3 +25.8 73 1007.5 1006.7
09 15.07 10 км 5/3 600 м
[Cu hum Ac lent Cs]
+31.3 +25.5 71 1006.7 1005.9
12 15.07 10 км 5/3 600 м
[Cu hum Ac lent Cs]
+29.6 +25.6 79 1007.2 1006.4 +31.9
15 15.07 10 км 5/3 600 м
[Cu hum Ac lent Cs]
+27.5 +25.8 90 1009.4 1008.6
18 15.07 10 км 5/3 600 м
[Cu hum Ac lent Cs]
+26.9 +25.6 93 1007.7 1006.9
21 15.07 10 км 5/3 600 м
[Cu hum Ac lent Cs]
+26.2 +25.5 96 1006.4 1005.6
00 16.07 10 км 5/3 600 м
[Cu hum Ac lent Cs]
+25.1 +24.7 98 1007.4 1006.6 +24.5

 

Местоположение метеостанции Ko Lanta (Таиланд): широта 7.53 долгота 99.05 высота над уровнем моря 3 м.

В архиве по умолчанию представлена погода в Ko Lanta за последнюю неделю. Архивные данные за месяц целиком и за предыдущие месяцы, начиная с января 2011 года, Вы можете получить, выбрав интересующий диапазон дат из раскрывающегося списка и нажав кнопку "Ввод!".


*Определитесь, кто Вы:
робот инопланетянин человек

Внимание! Время в таблицах - всемирное. Для получения местного времени необходимо прибавить поправку, которая в Ko Lanta равна 7 ч.

Смотрите также архив погоды в соседних городах и на ближайших метеорологических станциях:

Погода в Krabi (Таиланд) (62 км)
Погода в Trang (Таиланд) (63 км)
Погода в Phuket (Таиланд) (82 км)
Погода в Phuket Airport (Таиланд) (105 км)
Погода в Chawang (Таиланд) (112 км)
Погода в Prasang (Таиланд) (118 км)
Погода в Nakhonsi Thammarat (Таиланд) (120 км)
Погода в Phatthalung Agromet (Таиланд) (124 км)
Погода в Nakhonsi Thammarat 2 (Таиланд) (149 км)
Погода в Satun (Таиланд) (150 км)

Пояснения к столбцам:

Ветер - указаны скорость ветра в м/с - средняя за 10 мин, порывы в срок и между сроками (в фигурных скобках) и направление, откуда дует ветер: С - северный, СВ - северо-восточный, В - восточный, ЮВ - юго-восточный, Ю - южный, ЮЗ - юго-западный, З - западный, СЗ - северо-западный.
Видимость - горизонтальная дальность видимости в метрах или километрах. При видимости от 1 до 10 км при отсутствии осадков обычно наблюдается дымка, при ухудшении видимости до 1 км и менее - туман. В сухую погоду видимость может ухудшаться дымом, пылью или мглою.
Явления - указаны атмосферные явления, наблюдавшиеся в срок или в последний час перед сроком; фигурными скобками обозначены явления, наблюдавшиеся между сроками (за 1-3 часа до срока); квадратными скобками обозначены град или гололедные отложения с указанием их диаметра в мм.
Облачность - указаны через наклонную черту общая и нижняя облачность в баллах и высота нижней границы облаков в метрах; квадратными скобками обозначены формы облаков: Ci - перистые, Cs - перисто-слоистые, Cc - перисто-кучевые, Ac - высококучевые, As - высокослоистые, Sc - слоисто-кучевые, Ns - слоисто-дождевые, Cu - кучевые, Cb - кучево-дождевые. Подробнее классификацию облаков см. в Атласе облаков (PDF).
T - Температура воздуха - температура, измеренная на высоте 2 м над землей.
Td - Температура точки росы - температура, при понижении до которой содержащийся в воздухе водяной пар достигнет насыщения.
f - Относительная влажность воздуха - влажноcть воздуха, измеренная на высоте 2 м над землей.
Te - Эффективная температура - температура, которую ощущает одетый по сезону человек в тени. Характеристика душности погоды. При расчете учитывается влияние влажности воздуха и скорости ветра на теплоощущения человека.
Tes - Эффективная температура на солнце - температура, которую ощущает человек, с поправкой на солнечный нагрев. Характеристика знойности погоды. Зависит от высоты солнца над горизонтом, облачности и скорости ветра. Ночью, в пасмурную погоду, а также при ветре 12 м/с и более поправка равна нулю.
P - Атмосферное давление - приведенное к уровню моря атмосферное давление.
Po - Атмосферное давление - измеренное на уровне метеостанции атмосферное давление.
Tmin - Минимальная температура - минимум температуры воздуха на высоте 2 м над землей.
Tmax - Максимальная температура - максимум температуры воздуха на высоте 2 м над землей.
R - Количество осадков - Количество выпавших осадков за период времени, мм. При наведении курсора мыши на число - период времени, за который выпало указанное количество осадков.
R24 - Количество осадков - Количество выпавших осадков за 24 часа, мм.
S - Снежный покров - Высота снежного покрова, см. При наведении курсора мыши на число - состояние снежного покрова и степень покрытия местности в баллах.